|
|
Asteroid 2006 VC
(Preview)
Orbital elements: 2006 VC PHA, Earth MOID = 0.0206 AU Epoch 2010 July 23.0 TT = JDT 2455400.5 MPC M 113.06152 (2000.0) P Q n 0.36432196 Peri. 19.16575 -0.28119305 -0.93592283 a 1.9415377 Node 87.61247 +0.85041811 -0.34542521 e 0.4917005 Incl. 12.25521 +0.44465662 +0.06877409 P 2.71 H 20.0 G 0.15 U...
|
Blobrana
|
0
|
|
|
|
|
Asteroid (85640) 1998 OX4
(Preview)
The 160 - 370 metre wide asteroid 1998 OX4 will make a close pass (73.4 lunar distances, 0.1886 AU), travelling at 17.34 km/second, to the Earth-Moon system on the 31st August, 2010 @ 13:37 UT. See more The Lunar Distance (LD), th...
|
Blobrana
|
0
|
|
|
|
|
Asteroid 1998 HG49
(Preview)
The 110 - 250 metre wide asteroid 1998 HG49 will make a close pass (55.3 lunar distances, 0.1422 AU), travelling at 2.25 km/second, to the Earth-Moon system on the 14th November, 2010 @ 12:29 UT. See more The Lunar Distanc...
|
Blobrana
|
0
|
|
|
|
|
Asteroid 2005 QY151
(Preview)
The 790 - 1800 metre wide asteroid 2005 QY151 will make a close pass (77.7 lunar distances, 0.1996 AU), travelling at 16.02 km/second, to the Earth-Moon system on the 16th November, 2010 @ 00:36 UT. See more The Lunar Dis...
|
Blobrana
|
0
|
|
|
|
|
Asteroid 2010 OE22
(Preview)
Orbital elements: 2010 OE22 Earth MOID = 0.1772 AU Epoch 2010 July 23.0 TT = JDT 2455400.5 MPC M 8.47276 (2000.0) P Q n 0.25627280 Peri. 79.18302 -0.24271704 +0.96999762 a 2.4547148 Node 176.67212 -0.95703070 -0.23708049 e 0.5964063 Incl. 13.84805 -0.15868419 -0.05382797 P 3.85 H 21.5 G 0.15 U 9 [u...
|
Blobrana
|
0
|
|
|
|
|
Asteroid 2010 OP1
(Preview)
Orbital elements: 2010 OP1 Earth MOID = 0.2462 AU Epoch 2010 July 23.0 TT = JDT 2455400.5 MPC M 346.58028 (2000.0) P Q n 0.19181800 Peri. 254.64579 +0.88604867 -0.38408524 a 2.9776694 Node 127.22806 +0.43763572 +0.87773865 e 0.6486081 Incl. 19.02889 -0.15294684 +0.28644964 P 5.14 H 18.9 G 0.15 U 8...
|
Blobrana
|
0
|
|
|
|
|
Asteroid 2010 OR1
(Preview)
Orbital elements: 2010 OR1 Epoch 2010 July 23.0 TT = JDT 2455400.5 MPC M 0.06071 (2000.0) P Q n 0.00575712 Peri. 139.66407 +0.91874594 +0.08758997 a 30.8318063 Node 139.20217 -0.24544778 -0.63710820 e 0.9333605 Incl. 143.89616 +0.30929157 -0.76578139 P 171.20 H 15.9 G 0.15 U 7 [url=http://www....
|
Blobrana
|
0
|
|
|
|
|
Asteroid 2010 OA1
(Preview)
Orbital elements: 2010 OA1 Earth MOID = 0.0023 AU Epoch 2010 July 23.0 TT = JDT 2455400.5 MPC M 350.40695 (2000.0) P Q n 0.42482771 Peri. 209.22104 +0.85045725 +0.51254250 a 1.7525113 Node 119.47327 -0.45236214 +0.82746215 e 0.4409650 Incl. 7.81762 -0.26849760 +0.22936123 P 2.32 H 23.3 G 0.15 U 7 [...
|
Blobrana
|
0
|
|
|
|
|
Asteroid 2001 OT
(Preview)
The 130 - 290 metre wide asteroid 2001 OT will make a close pass (54.8 lunar distances, 0.1407 AU), travelling at 8.47 km/second, to the Earth-Moon system on the 23rd July, 2010 @ 06:48 UT. See more The Lunar Distance (LD), the distance between Earth and the Moon, equals 384,401 km, (or 0.00256 AU).
|
Blobrana
|
0
|
|
|
|
|
Asteroid 2000 QV7
(Preview)
The 150 - 330 metre wide asteroid 2000 QV7 will make a close pass (58.9 lunar distances, 0.1513 AU), travelling at 20.61 km/second, to the Earth-Moon system on the 24th August, 2010 @ 18:24 UT. See more The Lunar Distance (L...
|
Blobrana
|
0
|
|
|
|
|
Asteroid 2010 OC
(Preview)
Orbital elements: 2010 OC Earth MOID = 0.0679 AU Epoch 2010 July 23.0 TT = JDT 2455400.5 MPC M 351.40643 (2000.0) P Q n 0.20662271 Peri. 28.39094 +0.98671660 +0.10190118 a 2.8336792 Node 325.04332 -0.15549737 +0.81786553 e 0.6314346 Incl. 12.75684 +0.04702043 +0.56631450 P 4.77 H 18.8 G 0.15 U 8 [u...
|
Blobrana
|
2
|
|
|
|
|
Asteroid 2003 WX87
(Preview)
Orbital elements: 2003 WX87 Earth MOID = 0.2120 AU Epoch 2010 July 23.0 TT = JDT 2455400.5 MPC M 339.62716 (2000.0) P Q n 0.28237130 Peri. 324.38083 +0.43944373 -0.87024751 a 2.3010303 Node 98.60382 +0.86747771 +0.34680808 e 0.4939953 Incl. 13.01176 +0.23317725 +0.34984771 P 3.49 H 18.5 G 0.15 U 2...
|
Blobrana
|
0
|
|
|
|
|
Asteroid 2004 TC10
(Preview)
The 240 - 540 metre wide asteroid 2004 TC10 will make a close pass (58.7 lunar distances, 0.1509 AU), travelling at 14.96 km/second, to the Earth-Moon system on the 8th November, 2010 @ 09:41 UT. See more The Lunar Distanc...
|
Blobrana
|
0
|
|
|
|
|
Asteroid 2010 OB
(Preview)
Orbital elements: 2010 OB Earth MOID = 0.0748 AU Epoch 2010 July 23.0 TT = JDT 2455400.5 MPC M 3.11671 (2000.0) P Q n 0.22093185 Peri. 16.32722 +0.31998490 +0.94154793 a 2.7099659 Node 272.42950 -0.88060827 +0.25455938 e 0.5989923 Incl. 6.05239 -0.34948354 +0.22065136 P 4.46 H 21.9 G 0.15 U 8 [url=...
|
Blobrana
|
0
|
|
|
|
|
Asteroid 2010 NG3
(Preview)
Orbital elements: 2010 NG3 Earth MOID = 0.1418 AU Epoch 2010 July 23.0 TT = JDT 2455400.5 MPC M 23.06649 (2000.0) P Q n 0.23846856 Peri. 193.98082 -0.23098619 +0.88427513 a 2.5754233 Node 64.03756 -0.84366615 +0.02573270 e 0.5553344 Incl. 26.83288 -0.48463678 -0.46625671 P 4.13 H 17.1 G 0.15 U 7 [u...
|
Blobrana
|
0
|
|
|